Showing default

MERIDIAN 9, 45254

Orbit data source: Space-Track

MERIDIAN 9, 45254 is a payload satellite owned by VVKO VKS (CIS) in HEO that was launched on Thu, 20 Feb 2020 UTC via a SOYUZ-2-1A launch vehicle from the Plesetsk Missile And Space Complex (PKMTR). Payload-class satellites include a variety of spacecraft equipped with specific instruments for various scientific and technological missions. These include communications satellites like Starlink; space stations such as the ISS; scientific satellites like the Hubble; Earth observation satellites from companies like Planet Labs, Umbra, and HawkEye 360; GPS; miniature CubeSats for education and research; and military/defense satellites.

Loading next visibility...
Identifier
45254, 2020-015A
Orbit
HEO
Country
Flag of CISCIS
Related business
Manufacturer
Resehetnev ISS
Mission
Operational Defense Communications
Bus & Motor
MERIDIAN, Unknown motor
Mass
~2,000 kg wet, ~2,000 kg dry
Launch date (UTC)
2020-02-20 (7 years ago)
Launch vehicle
SOYUZ-2-1A
Launch site
Plesetsk Missile And Space Complex (PKMTR)
Object type
Payload
Rocket body
Debris
Shape & HBR
Box + 2 Pan, 5.0 m
Radar Cross Section
14.304 m², Large (>1 m²)

Expand to show TLE details & history
Last TLE update: 2 days ago

TLE from 2 days ago
0 MERIDIAN 9
1 45254U 20015A   26262.18185925  .00000026  00000-0  00000-0 0  9993
2 45254  65.5409 309.1171 6829482 276.3211  16.1200  2.00616821 48170
Epoch: 2026-09-19T04:21Z
TLE epoch observation values (Epoch: 2026-09-19T04:21:52.639Z)
Latitude
-0.00008°
Longitude
-114.39001°
Altitude
6,840.483 km
Speed
6.731 km/s
True Right ascension
20h 36m 41s
True Declination
0° 00' 00"
Sunlit
Object was in daylight at epoch
Visualization orbit readout
Latitude
Unknown
Longitude
Unknown
Altitude
Unknown
Speed
Unknown
Apparent Right ascension
Unknown
Apparent Declination
Unknown
Sunlit
N/A
Visualization observer readout
Local Sidereal Time
22:06:59
Azimuth
Unknown
Elevation
Unknown
Doppler factor
Unknown
Orbital elements
Apogee altitude
38,311.936 km
Perigee altitude
2,041.057 km
Semi-major axis
26,554.634 km
Eccentricity
0.68295
Inclination
65.5409°
RAAN
309.1171°
Arg. of periapsis
276.3211°
True anomaly
83.88288°
Mean anomaly
16.12°
Eccentric anomaly
42.61245°
Mean motion
0.50157 °/min
Orbital period
717.74 mins
BSTAR
0
Loading maneuver chart data...
Computing Atmospheric mass density...
Loading historical data...
Loading historical data...
Loading historical data...
Loading historical data...
Loading historical data...
Loading historical data...
Loading historical data...
Other satellites on launch #15 in the year 2020 (2020-02-20 UTC)

Documentation

Showing up to 5 results
|